Theta_e
343 343 343 346 347 348 347 346 345 347 346 349 347 344 341 340 340 341 345 345 345 344 341 338 328 313 316 322 324 323 319 324 330 335 337 337 335 331 327 323 317 316 320
343 343 345 345 347 347 348 347 345 344 346 346 349 345 341 341 341 344 346 346 346 345 342 339 329 314 313 318 321 315 318 321 329 332 333 335 331 327 324 319 318 316 324
343 343 345 345 346 347 347 348 347 345 345 346 347 348 344 342 343 345 347 347 347 346 342 339 329 316 312 314 316 318 320 321 322 329 330 332 329 324 320 318 318 319 320
343 343 344 346 346 346 346 347 348 348 347 346 346 347 347 346 346 346 347 347 348 347 343 338 325 312 310 314 315 319 320 319 321 326 328 329 327 324 320 319 320 319 322
344 343 344 345 346 347 346 347 347 348 349 349 347 346 347 348 347 348 349 349 348 348 345 338 320 311 310 314 319 319 319 320 322 327 327 325 324 322 320 319 319 315 309
346 346 346 346 345 346 346 347 347 347 348 349 350 349 347 347 348 349 350 349 349 348 345 339 317 311 311 313 316 318 318 319 318 325 325 324 324 322 319 319 316 314 317
344 349 349 348 348 347 345 341 347 348 348 348 349 350 350 347 347 347 349 350 349 348 346 336 315 311 311 313 315 318 317 317 314 317 317 322 322 320 319 313 309 316 318
349 354 355 353 351 350 349 347 347 347 347 349 349 350 350 351 350 348 349 349 349 348 345 332 315 310 311 312 313 314 314 314 313 317 319 320 319 317 311 311 315 315 313
333 346 354 356 353 357 355 352 352 352 351 351 351 350 350 351 351 351 349 349 349 348 343 326 315 311 312 312 311 311 313 312 313 316 316 314 313 312 311 313 316 317 317
332 331 335 352 355 356 356 356 355 354 353 351 347 345 348 348 346 339 335 336 343 347 340 322 315 312 311 310 309 309 309 310 314 313 312 314 315 315 315 316 317 318 319
325 324 326 329 346 354 358 357 357 357 356 351 349 349 349 343 342 338 336 335 332 326 335 320 314 315 311 309 309 314 311 310 313 315 316 316 315 316 316 317 317 317 320
323 324 324 324 325 336 353 362 356 357 357 355 353 352 347 343 343 337 335 336 333 332 325 318 313 313 312 310 314 316 312 314 318 319 319 319 318 317 316 316 316 317 317
321 323 325 324 323 325 342 354 353 354 352 352 351 348 346 336 337 334 335 334 334 331 329 316 314 314 312 314 316 316 315 317 319 319 319 318 318 318 317 315 315 316 317
320 322 325 326 325 331 332 351 351 352 350 348 343 345 343 336 334 334 334 336 334 333 335 320 316 315 314 316 316 316 315 315 318 319 319 318 313 314 315 314 314 318 316
323 325 327 325 329 333 338 341 348 348 346 339 337 337 339 339 340 339 336 338 337 335 332 319 319 315 316 319 316 315 314 313 311 315 316 313 314 315 317 318 319 319 320
320 329 329 328 327 328 332 340 344 345 345 344 345 343 342 341 342 338 339 338 335 335 330 324 319 316 318 316 315 316 314 313 311 310 311 313 315 317 319 319 320 321 321
317 318 332 330 328 325 326 336 342 345 345 344 343 341 343 345 342 339 337 337 336 335 331 324 320 315 319 316 316 316 317 314 312 312 314 316 317 317 318 321 320 321 322
321 318 324 331 327 325 324 327 337 341 344 345 343 343 342 341 340 340 337 335 335 335 333 323 321 318 318 318 319 320 322 321 317 314 316 316 316 317 320 320 319 321 322
328 332 329 330 327 325 323 322 336 340 342 343 344 343 342 339 336 335 335 336 335 335 334 325 323 320 318 317 317 320 321 322 322 318 315 316 317 317 320 320 321 322 322
324 330 331 330 326 325 323 320 326 341 341 341 341 342 343 337 335 333 332 331 332 334 330 325 322 320 319 316 318 319 321 321 321 320 318 318 316 317 319 320 320 320 321
324 329 328 328 326 325 323 321 322 341 339 336 339 341 341 340 339 335 333 332 331 332 329 324 321 321 321 321 318 319 321 320 321 320 319 317 316 319 320 318 319 320 320
320 325 329 331 327 327 325 323 324 338 340 335 335 337 338 336 336 334 333 331 331 328 325 322 322 323 322 321 318 316 317 316 320 315 316 318 320 319 318 319 321 322 322
320 321 324 328 328 328 329 336 331 331 337 336 333 331 337 336 333 335 334 329 325 322 320 319 319 319 321 317 312 311 313 316 316 315 319 319 318 317 318 320 322 322 322
320 323 322 325 329 330 330 328 334 333 335 334 333 333 337 336 336 336 333 328 322 321 319 318 320 318 316 314 312 316 317 318 317 316 319 318 318 316 317 321 322 321 318
326 326 326 326 326 329 330 330 333 335 334 333 335 335 333 334 332 331 330 326 322 321 320 319 321 322 321 322 321 321 320 319 317 318 317 317 317 317 319 320 317 315 314
323 324 326 328 328 327 329 330 333 335 335 332 332 334 332 328 331 327 328 324 322 322 321 321 321 320 321 321 321 319 319 317 317 317 318 318 320 320 317 315 313 312 312
Wind_Speed
28 28 30 29 27 26 26 24 23 22 22 22 21 22 24 25 23 21 19 16 14 13 13 12 11 9 12 15 16 15 15 13 13 13 16 17 15 12 8 4 2 1 2
27 26 27 30 30 29 27 27 26 26 24 24 23 22 21 24 25 23 21 19 16 15 14 13 12 11 13 14 14 13 12 13 11 13 18 18 16 12 9 4 2 2 5
28 28 28 30 31 31 30 29 29 29 28 27 27 26 24 24 25 24 22 20 18 16 16 14 13 13 14 15 13 12 11 12 13 12 16 19 17 14 9 6 4 3 3
34 31 30 29 29 28 30 31 32 32 32 32 31 30 29 29 28 27 26 24 21 19 18 17 15 14 15 16 15 14 12 11 12 13 14 19 17 15 11 8 6 7 5
25 35 35 33 33 31 33 32 33 35 35 34 34 35 35 34 34 33 30 28 25 23 21 19 17 16 16 17 16 15 13 11 12 13 13 14 16 14 11 10 8 9 8
17 24 31 37 35 35 36 39 36 35 38 39 39 39 40 40 38 37 34 33 30 28 24 21 18 18 19 18 17 16 15 15 14 14 14 14 16 14 12 10 8 5 7
9 17 25 32 38 39 38 33 36 36 39 42 42 43 43 44 44 41 39 38 34 31 27 25 22 22 20 19 18 17 16 15 15 15 16 16 15 14 11 9 8 9 7
9 13 18 29 36 39 41 45 47 48 46 43 45 45 45 45 47 44 44 44 39 35 32 28 26 24 23 21 19 18 16 15 15 15 16 14 14 11 10 13 12 11 9
15 15 15 16 23 33 39 43 42 41 42 43 40 40 43 46 47 49 50 48 44 41 35 29 28 26 23 22 21 20 18 17 16 15 14 13 14 13 14 14 10 8 5
15 18 21 20 17 15 19 24 29 35 38 38 34 29 25 33 28 27 31 18 48 43 37 31 30 26 24 23 23 22 21 21 19 17 17 17 16 15 14 12 9 6 5
16 19 22 23 21 18 17 20 27 30 36 38 42 41 29 36 47 49 52 40 39 33 35 32 30 27 24 23 23 21 19 20 21 18 16 16 16 15 14 11 9 7 6
18 20 20 25 27 21 17 22 22 26 29 30 30 28 30 31 36 26 46 48 37 21 29 25 27 27 24 24 23 20 20 20 19 17 16 16 16 16 17 15 13 11 9
18 20 20 20 27 29 17 12 16 22 21 24 26 29 24 22 23 23 26 34 26 19 22 28 28 26 24 25 22 20 21 22 19 19 17 16 15 14 17 18 17 14 12
20 21 20 20 23 22 21 12 16 21 20 23 26 30 29 29 31 32 34 27 27 25 26 27 25 26 27 25 25 23 23 23 20 19 17 14 16 16 14 14 15 14 15
20 19 20 23 19 18 17 15 17 24 25 25 27 29 33 28 27 25 28 36 28 32 25 29 31 30 34 32 29 28 27 24 24 23 20 20 18 16 14 14 14 15 17
23 21 22 22 18 18 18 18 16 18 20 25 28 29 30 30 24 20 26 29 33 32 31 36 35 36 38 36 34 31 26 23 22 23 24 21 18 17 15 14 15 17 17
28 26 24 22 21 19 19 17 18 16 18 18 18 22 22 21 24 20 25 36 36 32 33 37 36 38 39 38 33 29 27 25 24 24 23 21 19 17 16 16 15 16 15
27 29 28 24 23 22 20 20 18 20 19 19 18 19 21 21 24 23 29 31 41 40 35 38 37 39 40 34 29 29 26 28 27 25 23 21 21 19 18 18 17 17 16
27 27 24 23 22 26 22 23 20 21 22 19 18 17 17 17 19 19 27 35 43 44 41 37 37 40 36 33 36 33 30 30 30 28 25 24 23 21 22 20 19 19 19
27 23 20 20 23 27 25 25 25 22 24 23 21 19 20 19 22 24 26 32 36 37 38 40 41 36 35 36 36 31 25 26 28 29 28 25 24 24 23 22 20 19 17
29 24 23 23 24 27 26 27 28 23 24 22 22 23 22 26 26 28 32 33 36 38 39 39 37 37 36 35 36 36 29 23 26 29 27 28 25 26 23 22 22 24 23
30 29 27 24 27 30 29 27 27 27 26 25 21 23 22 24 29 33 36 38 38 38 36 33 34 36 34 33 33 36 34 31 29 29 30 29 24 24 24 21 20 19 17
30 30 30 31 31 31 28 27 26 28 30 27 27 27 27 28 34 34 36 37 34 32 29 30 30 30 31 29 26 27 29 32 31 30 28 23 23 22 19 19 18 18 18
30 31 31 31 26 24 25 27 29 29 28 28 25 25 27 31 37 36 33 33 33 29 28 28 30 27 24 24 26 27 30 24 20 30 23 24 21 21 22 19 18 17 16
28 30 30 32 33 26 26 26 28 27 27 23 26 27 24 27 33 36 33 29 28 28 27 29 29 26 24 25 26 22 29 35 25 22 23 26 22 25 21 18 16 15 15
31 31 31 31 32 29 25 25 24 23 24 23 27 34 36 30 30 30 27 26 26 25 26 27 28 26 26 25 24 26 26 23 21 24 27 25 22 20 19 19 18 14 14
Wind_Direction
232 232 229 231 230 227 227 229 229 228 228 228 234 235 233 232 231 231 233 236 241 248 252 258 264 246 220 219 228 232 231 213 213 218 217 215 213 214 224 254 327 64 156
230 232 234 235 233 231 231 232 232 232 231 234 236 239 237 233 230 229 234 240 242 246 249 252 258 243 230 223 228 230 223 216 206 212 216 208 204 207 209 219 184 170 184
233 232 232 234 236 235 236 235 235 235 236 235 235 235 234 231 229 231 235 241 247 251 250 251 253 244 226 218 215 211 217 217 214 211 212 201 202 205 202 213 219 244 231
237 238 240 240 241 243 244 242 242 241 239 237 238 240 238 237 235 235 238 241 243 251 251 249 250 236 218 209 207 209 218 219 214 206 205 204 203 208 209 216 237 257 236
240 248 250 252 250 248 245 246 246 245 244 242 241 241 241 240 241 239 237 239 242 245 246 243 241 225 210 204 205 210 213 206 198 194 193 199 208 213 216 231 246 264 245
241 252 255 258 260 255 260 251 243 250 248 245 244 243 242 244 244 243 242 239 239 239 238 235 230 218 208 205 209 208 207 201 201 200 205 207 216 223 228 242 251 217 195
279 266 270 272 271 267 258 255 247 249 253 250 245 243 245 245 245 244 245 240 238 238 235 228 219 215 208 205 205 208 206 205 205 208 213 208 217 219 229 230 179 165 167
349 283 267 262 264 264 267 265 266 267 263 258 251 249 248 248 249 246 244 243 235 235 232 225 220 209 204 201 201 204 206 203 200 195 193 202 213 220 195 167 155 154 148
3 343 323 293 269 260 260 264 270 269 265 257 254 258 258 256 252 252 247 238 230 233 228 220 215 206 199 200 196 199 200 203 198 194 197 193 184 173 159 154 158 161 183
4 359 352 332 309 285 274 276 275 269 265 255 252 257 262 263 256 277 285 289 234 224 220 216 211 207 198 198 195 192 193 196 190 179 178 177 178 177 178 178 187 195 213
358 356 351 347 331 304 291 283 279 275 261 257 260 265 252 264 244 258 243 259 266 273 215 210 206 203 199 194 193 191 197 191 186 182 186 192 195 197 203 207 207 210 223
330 336 343 339 339 327 288 282 275 274 269 268 269 252 249 244 253 245 244 244 246 240 232 225 215 203 200 195 193 191 190 190 192 194 198 204 208 208 216 224 230 232 234
320 323 329 333 332 326 305 283 280 268 258 249 245 245 239 241 222 228 230 228 221 204 206 218 222 211 203 197 198 200 194 197 198 198 200 205 208 216 221 228 233 232 242
307 315 318 322 323 316 310 281 265 246 239 247 248 233 244 238 235 233 230 208 196 183 203 189 204 216 205 201 197 198 204 204 202 203 206 208 203 206 214 218 225 237 250
295 297 303 308 309 308 305 288 255 249 257 242 242 242 241 245 250 249 220 189 209 201 196 189 207 202 207 205 200 202 205 205 208 210 209 207 208 215 225 233 240 248 256
302 290 288 289 294 303 301 284 265 264 252 246 250 245 250 251 246 250 228 232 200 203 199 200 201 206 209 205 202 201 206 209 212 212 209 209 214 225 232 246 253 255 256
300 292 279 283 285 292 296 296 277 272 268 261 260 251 252 242 231 231 223 217 218 207 214 207 206 213 214 210 206 206 211 213 213 211 210 216 223 236 247 250 259 265 263
298 279 271 263 272 282 292 290 278 278 266 262 260 256 252 251 245 236 230 225 219 214 220 211 211 213 216 212 210 215 215 219 219 216 215 225 237 245 249 257 261 255 260
300 283 266 259 266 281 291 290 275 275 269 258 255 263 246 235 238 230 228 227 224 226 221 212 219 215 214 214 221 222 227 225 224 221 222 230 238 247 253 262 266 261 257
290 282 271 259 266 278 287 294 281 267 266 264 253 255 254 234 227 221 220 222 224 223 213 214 215 213 213 217 219 216 218 219 221 215 222 231 238 244 248 256 272 258 258
278 273 266 270 269 277 285 290 286 269 267 264 261 254 253 246 232 224 213 209 211 214 213 217 216 213 217 219 216 214 217 213 208 218 228 229 241 250 256 270 273 268 266
282 277 272 269 271 276 281 284 286 267 263 264 266 261 249 239 234 225 217 214 217 217 216 217 218 220 222 222 220 217 218 220 221 219 220 229 244 252 255 254 254 258 250
283 280 272 268 267 271 272 275 279 268 259 266 272 258 246 235 226 226 223 219 218 213 213 215 215 218 222 219 215 208 205 209 209 215 223 232 249 251 249 259 252 251 246
281 282 275 269 267 269 273 272 274 264 255 266 265 251 245 234 226 228 223 214 213 210 209 213 211 212 213 205 203 200 200 199 218 216 231 241 264 259 253 253 248 242 244
283 275 271 266 266 265 270 270 266 248 260 253 260 254 262 257 232 227 213 207 206 204 206 207 209 208 211 218 222 218 214 218 221 220 241 253 246 242 241 244 235 244 247
282 272 267 262 260 263 259 270 259 259 254 267 260 253 266 256 226 210 202 199 200 203 200 204 210 209 208 208 204 214 220 212 212 232 240 249 240 230 233 235 235 243 239